User: anonymous   Login
Location: Pedholt
(56.0260°N, 10.2097°E)
Time: 18:32:35
(UTC+00:00)
Language:

Tiangong - Orbit

View from above orbital plane
View from above orbital plane
View from above satellite
View from above satellite

Ground track
Ground track

The orbit data is extracted from the following two-line orbital elements,

1 48274U 21035A   21203.91891439  .00007261  00000-0  82487-4 0  9997
2 48274  41.4692  65.1062 0008135 218.6672 267.4696 15.62626827 13281
Epoch (UTC): 22 July 2021 22:03:14
Eccentricity: 0.0008135
inclination: 41.4692°
perigee height: 374 km
apogee height: 385 km
right ascension of ascending node: 65.1062°
argument of perigee: 218.6672°
revolutions per day: 15.62626827
mean anomaly at epoch: 267.4696°
orbit number at epoch: 1328

The dashed part of the orbit path shows where the satellite is in the earth's shadow,  

DLR